Tracking 35275 objects as of 9-Sep-2026
HD Live streaming from Space Station
objects crossing your sky now

COSMOS 502 DEB


COSMOS 502 DEB is no longer on orbit


NORAD ID: 6129
Int'l Code: 1972-055E
Launch date: July 13, 1972
Source: Commonwealth of Independent States (former USSR) (CIS)
Launch site: PLESETSK MISSILE AND SPACE COMPLEX (PKMTR)
Decay date: 1972-07-26

Note: This is SATELLITE DEBRIS
Your satellite tracking list
Your tracking list is empty




NASA's NSSDC Master Catalog

Two Line Element Set (TLE):
1 06129U 72055  E 72208.65329421  .19530366 +15568-1 +00000-0 0  9997
2 06129 065.3917 080.0582 0047180 001.8194 358.3101 16.26749045002116
Source of the keplerian elements: AFSPC